Regional Weather Roundup
Issued by NWS Charleston, SC

Current Version | Previous Version | Graphics & Text | Print | Product List | Glossary On
Versions: 1 2 3 4 5 6 7 8 9 10 11 12 13 14 15 16 17 18 19 20 21 22 23 24 25 26 27 28 29 30 31 32 33 34 35 36 37 38 39 40 41 42 43 44 45 46 47 48 49 50
000
ASUS42 KCHS 040627
RWRCHS

REGIONAL WEATHER ROUNDUP
NATIONAL WEATHER SERVICE CHARLESTON SC
200 AM EDT SAT JUL 04 2015

NOTE: "FAIR" INDICATES FEW OR NO CLOUDS BELOW 12,000 FEET WITH NO
SIGNIFICANT WEATHER AND/OR OBSTRUCTIONS TO VISIBILITY.

NOT ALL STATIONS ARE QUALITY CONTROLLED BY THE NATIONAL
WEATHER SERVICE. USE DATA WITH CAUTION...ESPECIALLY
DEWPOINT OBSERVATIONS.

SCZ027-030-031-034>040-042>050-040700-
...SOUTHEAST SOUTH CAROLINA...

CITY           SKY/WX    TMP DP  RH WIND       PRES   REMARKS
N CHARLESTON   PTCLDY    79  73  82 SW8       30.02R
6HR MIN TEMP:  76; 6HR MAX TEMP:  80;

WATERFRONT PAR   N/A     81  75  82 SW7       29.99S
MOUNT PLEASANT LGT RAIN  81  73  78 SW7       30.03R
JOHNS ISLAND   FAIR      81  75  83 SW10G17   30.03R
PINOPOLIS      NOT AVBL
MONCKS CORNER  MOCLDY    70  66  88 SW7       30.02S THUNDER
SUMMERVILLE    TSTM      72  72 100 S8G22     30.03F
BEAUFORT MCAS  CLEAR     80  74  81 SW6       30.03S
6HR MIN TEMP:  80; 6HR MAX TEMP:  83;

BEAUFORT ARPT  FAIR      81  73  78 SW8       30.02S
HILTON HEAD IS CLEAR     82  73  74 S13       30.04S
WALTERBORO     PTCLDY    70  66  88 W9        30.07R
ALLENDALE      FAIR      75  66  73 CALM      30.01F

...SOUTHERN MIDLANDS AND PEE DEE...

CITY           SKY/WX    TMP DP  RH WIND       PRES   REMARKS
GEORGETOWN     NOT AVBL
KINGSTREE      NOT AVBL
ORANGEBURG     PTCLDY    75  69  81 S10       30.02S
6HR MIN TEMP:  72; 6HR MAX TEMP:  81;

BARNWELL       DRIZZLE   73  70  88 W5        30.01F
AIKEN          NOT AVBL
MANNING        FAIR      75  70  83 SW5       30.00F
COLUMBIA       PTCLDY    75  70  84 CALM      29.98F
6HR MIN TEMP:  75; 6HR MAX TEMP:  81;

SUMTER         PTCLDY    75  70  83 SW9       29.97F
6HR MIN TEMP:  75; 6HR MAX TEMP:  82;

FLORENCE       PTCLDY    77  70  79 SW13      29.97S
6HR MIN TEMP:  76; 6HR MAX TEMP:  81;

MYRTLE BEACH   PTCLDY    79  72  78 SW10G16   30.01S
N MYRTLE BEACH CLEAR     80  73  79 SW14G25   29.97F
6HR MIN TEMP:  73; 6HR MAX TEMP:  80;


$$

GAZ063-065-086>088-099>101-113>116-118-119-134>141-150-040700-
...SOUTHEAST GEORGIA...

CITY           SKY/WX    TMP DP  RH WIND       PRES   REMARKS
SAVANNAH ARPT  CLEAR     79  72  79 SW7       30.03F
6HR MIN TEMP:  79; 6HR MAX TEMP:  86;

HUNTER AAF     MOCLDY    80  74  80 SW7       30.01F
6HR MIN TEMP:  80; 6HR MAX TEMP:  88;

FORT STEWART   PTCLDY    76  72  86 S3        30.02F
6HR MIN TEMP:  76; 6HR MAX TEMP:  87;

STATESBORO     NOT AVBL
SYLVANIA       PTCLDY    75  74  97 CALM      30.03F
CLAXTON        FAIR      79  72  78 CALM      30.03F

...CSRA...CENTRAL AND FAR SOUTHEAST GEORGIA...

CITY           SKY/WX    TMP DP  RH WIND       PRES   REMARKS
THOMSON        PTCLDY    76  74  93 SW17G30   30.10R
AUGUSTA-BUSH   LGT RAIN  73  68  84 S7        29.99F
6HR MIN TEMP:  73; 6HR MAX TEMP:  81; 6HR PCP:  0.05;

AUGUSTA-DANIEL MOCLDY    76  68  76 CALM      30.01F
SWAINSBORO     FAIR      81  73  78 W8        30.06R
VIDALIA        MOCLDY    79  72  78 SW6       30.04F
EASTMAN        FAIR      78  68  70 CALM      30.08F
HAZLEHURST     FAIR      80  74  82 CALM      30.03F
ALMA           PTCLDY    78  73  84 SW3       30.04F
6HR MIN TEMP:  78; 6HR MAX TEMP:  87;

WAYCROSS       CLEAR     80  77  90 SW5       30.05S
JESUP          FAIR      79  73  83 SW3       30.04F
BAXLEY         FAIR      79  73  83 CALM      30.04F
BRUNSWICK      CLEAR     79  73  83 SW6       30.06S
SAINT SIMONS   CLEAR     80  73  79 SW9       30.05S
6HR MIN TEMP:  80; 6HR MAX TEMP:  82;


$$

SCZ027-028-034-036>038-045-046-048>050-GAZ119-141-040700-
...LAKE AND SUPPLEMENTAL COASTAL OBSERVATIONS...

STATION/POSITION TIME  TEMP    WIND        PRES    WAVE   SWELL
                       AIR SEA DIR/SP/G            HT/PER HT/PER/DIR
                 (UTC) (F)     (DEG/KT/KT) (MB)    (FT/S) (FT/S/D)
UPR LAKE MARION  NOT AVBL
WINYAH BAY       0500   77     230/  6     1015.0
LAKE MURRAY      0500   79     220/  8/ 11 1015.2F
ACE BASIN NERRS  NOT AVBL
FORT PULASKI     0600   81 84  200/  8/ 12 1017.3F
SAPELO ISLAND    0600   80     210/  9     1017.0S

$$

ANZ835-935-AMZ111-154-330-350-352-354-370-450-454-472-040700-
...C-MAN AND BUOY OBSERVATIONS...

STATION/POSITION TIME  TEMP    WIND        PRES    WAVE   SWELL
                       AIR SEA DIR/SP/G            HT/PER HT/PER/DIR
                 (UTC) (F)     (DEG/KT/KT) (MB)    (FT/S) (FT/S/D)
BUOY 41004       0550   83 81  210/ 19/ 21 1015.7F   5/ 5   2/ 9
BUOY 41008       0550   80 79  200/ 16/ 19 1017.3F   4/ 4   2/110/ 9
FOLLY BEACH CMAN 0600   81     230/ 15/ 20 1016.6S
CAPERS NEARSHORE 0508   83     240/ 19/ 25 1017.0F
FRIPP NEARSHORE  0500   82     220/ 21/ 23 1016.6F


STATION/POSITION TIME  TEMP    WIND        PRES    WAVE   SWELL
                       AIR SEA DIR/SP/G            HT/PER HT/PER/DIR
                 (UTC) (F)     (DEG/KT/KT) (MB)    (FT/S) (FT/S/D)
5E ST. MARYS GA  0521      77                N/A     3/10
FRYING PAN BUOY  0550   81 79  210/ 19/ 23 1015.4F   6/ 7   2/140/ 8
BUOY 41025       0550   80 81  240/ 29/ 35 1012.6R   7/ 6   2/150/ 9
CAPE LOOKOUT NC  0600   80     240/ 17/ 20 1014.0R
BUOY 41002       0550   81 80  230/ 14/ 17 1018.8F   5/ 8   3/140/ 8
BUOY 41010       0520   83 84  180/ 10/ 12 1019.8F
ST AUGUSTINE FL  0600   78 74  230/  7/  9 1019.3F


$$



USA.gov is the U.S. government's official web portal to all federal, state and local government web resources and services.